Tracking 24120 objects as of 5-Dec-2021
HD Live streaming from Space Station
objects crossing your sky now

COSMOS 1285 DEB

Track COSMOS 1285 DEB now!


NORAD ID: 26680
Int'l Code: 1981-071L
Perigee: 2,535.4 km
Apogee: 38,256.7 km
Inclination: 63.9 °
Period: 726.4 minutes
Semi major axis: 26767 km
RCS: 0.3981 m2 (medium)
Launch date: August 4, 1981
Source: Commonwealth of Independent States (former USSR) (CIS)
Launch site: PLESETSK MISSILE AND SPACE COMPLEX (PKMTR)

Note: This is SATELLITE DEBRIS
aabbcc
Your satellite tracking list
Your tracking list is empty




NASA's NSSDC Master Catalog

Two Line Element Set (TLE):
1 26680U 81071L   21332.30174400  .00000858  00000-0  00000-0 0  9990
2 26680  63.9359 212.3562 6672622  45.9202 352.6322  1.98244849175053
Source of the keplerian elements: AFSPC